Weather History for CWEU - November, 2013

Change the Weather History Date:

Monday, November 11, 2013

  Actual Average Record
Temperature  
Mean Temperature -25 °F -  
Max Temperature -19 °F -21 °F 15 °F (1999)
Min Temperature -31 °F -34 °F -40 °F (2004)
Degree Days  
Heating Degree Days 90    
Moisture  
Dew Point -38 °F    
Average Humidity 60    
Maximum Humidity 69    
Minimum Humidity 42    
Precipitation  
Precipitation 0.00 in 0.00 in - ()
Sea Level Pressure  
Sea Level Pressure 29.63 in    
Wind  
Wind Speed 2 mph ()    
Max Wind Speed 10 mph    
Max Gust Speed -    
Visibility 15.0 miles    
Events Snow    
Averages and records for this station are not official NWS values.
T = Trace of Precipitation, MM = Missing Value Source: Averaged Metar Reports

Daily Weather History Graph

Daily Weather History Graph

Search for Another Location

Airport or City:

Trip Planner

Search our weather history database for the weather conditions in past years. The results will help you decide how hot, cold, wet, or windy it might be!

Date:

Astronomy

Dec. 31, 1969 Rise Set
Actual Time Sun does not set Sun does not set
Civil Twilight Sun does not set Sun does not set
Nautical Twilight 7:37 AM CST 3:15 PM CST
Astronomical Twilight 5:10 AM CST 5:41 PM CST
Moon 2:27 PM CST (11/11) No Moon Set
Length of Visible Light 0h 00m
Length of Day
0h 00m
Waxing Gibbous, 66% of the Moon is Illuminated
Nov 11
Waxing Gibbous
Nov 17
Full
Nov 25
Last Quarter
Dec 2
New
Dec 9
First Quarter

Hourly Weather History & Observations

Time (CST) Temp. Windchill Dew Point Humidity Pressure Visibility Wind Dir Wind Speed Gust Speed Precip Events Conditions
12:00 AM -29 °F - -38 °F 42% 29.74 in 15 mi East 2.3 mph - - Snow Snow
12:00 AM -29.2 °F - -38.2 °F 62% 29.74 in 15.0 mi East 2.3 mph - N/A   Clear
1:00 AM -31.0 °F - -40.0 °F 62% 29.73 in 15.0 mi South 2.3 mph - N/A   Clear
2:00 AM -29.2 °F - -38.2 °F 62% 29.72 in 15.0 mi Calm Calm - N/A   Clear
3:00 AM -29.2 °F - -40.0 °F 56% 29.71 in 15.0 mi ESE 2.3 mph - N/A   Clear
4:00 AM -27.4 °F - -36.4 °F 62% 29.70 in 15.0 mi ENE 2.3 mph - N/A   Clear
5:00 AM -29.2 °F - -40.0 °F 56% 29.68 in 15.0 mi Calm Calm - N/A   Clear
6:00 AM -30 °F - -38 °F 47% 29.67 in 15 mi Calm Calm - - Snow Snow
6:00 AM -29.2 °F - -38.2 °F 62% 29.67 in 15.0 mi Calm Calm - N/A   Clear
7:00 AM -31.0 °F - -40.0 °F 62% 29.65 in 15.0 mi SE 2.3 mph - N/A   Clear
8:00 AM -29.2 °F - -38.2 °F 62% 29.64 in 15.0 mi ENE 2.3 mph - N/A   Partly Cloudy
9:00 AM -29.2 °F - -38.2 °F 62% 29.62 in 15.0 mi Calm Calm - N/A   Partly Cloudy
10:00 AM -31.0 °F -46.1 °F -38.2 °F 68% 29.61 in 15.0 mi SSE 4.6 mph - N/A   Partly Cloudy
11:00 AM -29.2 °F - -38.2 °F 62% 29.60 in 15.0 mi ENE 2.3 mph - N/A   Partly Cloudy
12:00 PM -30 °F - -39 °F 43% 29.59 in 15 mi Calm Calm - - Snow Snow
12:00 PM -31.0 °F - -38.2 °F 68% 29.59 in 15.0 mi Calm Calm - N/A   Partly Cloudy
1:00 PM -27.4 °F -41.9 °F -34.6 °F 69% 29.59 in 15.0 mi SE 4.6 mph - N/A   Scattered Clouds
2:00 PM -29.2 °F -41.2 °F -40.0 °F 56% 29.59 in 15.0 mi East 3.5 mph - N/A   Scattered Clouds
3:00 PM -29.2 °F - -36.4 °F 68% 29.59 in 15.0 mi Calm Calm - N/A   Partly Cloudy
4:00 PM -31.0 °F - -40.0 °F 62% 29.58 in 15.0 mi Calm Calm - N/A   Clear
5:00 PM -29.2 °F -44.0 °F -38.2 °F 62% 29.57 in 15.0 mi ESE 4.6 mph - N/A   Clear
6:00 PM -28 °F - -36 °F 50% 29.57 in 15 mi ESE 5.8 mph - - Snow Snow
6:00 PM -27.4 °F -41.9 °F -34.6 °F 69% 29.57 in 15.0 mi SE 4.6 mph - N/A   Clear
7:00 PM -31.0 °F -43.3 °F -41.8 °F 56% 29.57 in 15.0 mi SE 3.5 mph - N/A   Clear
8:00 PM -25.6 °F -48.0 °F -34.6 °F 63% 29.57 in 15.0 mi SE 10.4 mph - N/A   Clear
9:00 PM -22.0 °F -41.0 °F -31.0 °F 63% 29.56 in 15.0 mi SE 8.1 mph - N/A   Clear